EW9805 Weather Reports


Display with metric or nautical units.
time (UTC)temp
F
wind
direction
speed
MPH
gust
MPH
rain 1hr
in
rain 24hr
in
rain mn
in
humidity
%
barometer
mb
20260509212330 61 153 4.0 8.0 0.00 0.17 0.17 78 1006.7
20260509211828 61 123 2.0 6.0 0.00 0.17 0.17 78 1006.9
20260509211329 61 137 4.0 8.0 0.00 0.17 0.17 80 1007.6
20260509210830 60 130 5.0 8.0 0.00 0.17 0.17 80 1007.9
20260509210330 60 159 4.0 7.0 0.00 0.17 0.17 81 1008.1
20260509205850 60 130 4.0 7.0 0.00 0.17 0.17 82 1008.0
20260509205329 60 134 3.0 4.0 0.00 0.17 0.17 84 1008.3
20260509204830 59 90 3.0 4.0 0.00 0.17 0.17 84 1008.6
20260509204331 59 107 1.0 4.0 0.00 0.17 0.17 85 1008.7
20260509203831 59 86 0.0 2.0 0.00 0.17 0.17 85 1008.7
20260509203313 59 42 0.0 0.0 0.00 0.17 0.17 85 1008.8
20260509202815 59 42 0.0 2.0 0.00 0.17 0.17 85 1008.9
20260509202318 59 355 0.0 2.0 0.00 0.17 0.17 85 1008.9
20260509201820 58 23 0.0 3.0 0.00 0.17 0.17 85 1008.8
20260509201320 58 29 1.0 3.0 0.00 0.17 0.17 84 1008.6
20260509200321 59 61 0.0 3.0 0.00 0.17 0.17 84 1008.4
20260509195822 59 96 1.0 3.0 0.00 0.17 0.17 84 1008.5
20260509195322 59 74 0.0 2.0 0.00 0.17 0.17 84 1008.6
20260509194823 59 78 0.0 2.0 0.00 0.17 0.17 84 1008.9
20260509194323 59 119 0.0 2.0 0.00 0.17 0.17 83 1008.9
20260509193824 59 57 1.0 3.0 0.00 0.17 0.17 84 1008.8
20260509193324 59 49 1.0 3.0 0.00 0.17 0.17 83 1008.8
20260509192825 59 63 1.0 2.0 0.00 0.17 0.17 84 1008.9
20260509192323 59 101 0.0 5.0 0.00 0.17 0.17 83 1009.0
20260509191824 60 101 1.0 5.0 0.00 0.17 0.17 83 1009.1
20260509191344 59 90 1.0 3.0 0.00 0.17 0.17 85 1009.1
20260509190823 59 52 0.0 4.0 0.00 0.17 0.17 85 1009.1
20260509190323 58 192 2.0 4.0 0.00 0.17 0.17 85 1009.2
20260509185824 58 101 3.0 6.0 0.00 0.17 0.17 86 1009.5
20260509185323 58 214 3.0 6.0 0.00 0.17 0.17 87 1009.6
20260509184823 58 119 2.0 4.0 0.00 0.17 0.17 87 1009.6
20260509184342 58 171 1.0 4.0 0.00 0.17 0.17 87 1009.8
20260509183823 57 204 2.0 5.0 0.00 0.17 0.17 87 1009.7
20260509183324 57 200 2.0 5.0 0.00 0.17 0.17 87 1009.5
20260509182824 57 159 3.0 4.0 0.00 0.17 0.17 87 1009.6
20260509182325 57 180 2.0 4.0 0.00 0.17 0.17 88 1009.5
20260509181824 57 184 2.0 4.0 0.00 0.17 0.17 88 1009.4
20260509181345 57 165 3.0 4.0 0.00 0.17 0.17 88 1009.5
20260509180845 57 77 2.0 4.0 0.00 0.17 0.17 89 1009.4
20260509180323 57 81 1.0 4.0 0.00 0.17 0.17 89 1009.5
20260509175822 56 43 2.0 3.0 0.00 0.17 0.17 89 1009.6
20260509175321 56 85 0.0 3.0 0.01 0.17 0.17 89 1009.6
20260509174823 55 128 1.0 3.0 0.01 0.17 0.17 89 1009.8
20260509174340 55 192 1.0 3.0 0.01 0.17 0.17 89 1009.8
20260509173821 55 192 1.0 4.0 0.01 0.17 0.17 89 1010.0
20260509173321 55 192 2.0 5.0 0.01 0.17 0.17 89 1010.1
20260509172841 55 190 3.0 5.0 0.01 0.17 0.17 89 1010.2
20260509172321 55 196 1.0 4.0 0.01 0.17 0.17 89 1010.2
20260509171821 55 189 2.0 4.0 0.01 0.17 0.17 89 1010.3
20260509171342 55 189 2.0 6.0 0.02 0.17 0.17 89 1010.3
20260509170823 55 179 3.0 6.0 0.02 0.17 0.17 89 1010.3
20260509170325 54 210 4.0 6.0 0.02 0.17 0.17 89 1010.5
20260509165826 54 174 4.0 7.0 0.03 0.17 0.17 89 1010.4
20260509165326 54 189 4.0 7.0 0.02 0.16 0.16 89 1010.4
20260509164828 54 180 3.0 5.0 0.03 0.16 0.16 89 1010.4
20260509164330 54 161 3.0 5.0 0.04 0.16 0.16 89 1010.2
20260509163852 54 193 3.0 6.0 0.05 0.16 0.16 89 1010.2
20260509163353 54 113 3.0 6.0 0.07 0.16 0.16 89 1010.0
20260509162827 54 94 1.0 6.0 0.07 0.16 0.16 89 1009.9
20260509162346 54 126 4.0 6.0 0.09 0.16 0.16 88 1009.9
20260509161826 54 40 3.0 6.0 0.11 0.16 0.16 88 1009.6
20260509161324 54 48 3.0 5.0 0.11 0.15 0.15 88 1009.7
20260509160826 54 63 2.0 5.0 0.12 0.15 0.15 88 1009.8
20260509160348 54 59 3.0 4.0 0.12 0.15 0.15 87 1010.0
20260509155826 54 15 2.0 4.0 0.11 0.14 0.14 88 1010.1
20260509155325 54 63 2.0 4.0 0.11 0.13 0.13 87 1010.1
20260509154827 54 86 2.0 3.0 0.11 0.13 0.13 87 1010.5
20260509154345 54 221 1.0 2.0 0.11 0.12 0.12 86 1010.9
20260509153823 54 221 0.0 2.0 0.10 0.11 0.11 86 1010.9
20260509153345 54 221 1.0 2.0 0.08 0.09 0.09 86 1011.1
20260509152825 54 221 0.0 2.0 0.08 0.08 0.08 85 1011.2
20260509152326 54 221 0.0 4.0 0.07 0.07 0.07 85 1011.3
20260509151847 54 222 2.0 4.0 0.05 0.05 0.05 85 1011.3
20260509151325 54 214 2.0 4.0 0.04 0.04 0.04 84 1011.2
20260509150825 55 183 2.0 4.0 0.03 0.03 0.03 84 1011.0
20260509150346 55 153 2.0 5.0 0.03 0.03 0.03 83 1010.9
20260509145826 55 157 2.0 3.0 0.03 0.03 0.03 83 1010.8
20260509145327 55 200 1.0 3.0 0.02 0.02 0.02 82 1010.9
20260509144830 55 180 2.0 3.0 0.02 0.02 0.02 82 1010.8
20260509144325 55 166 1.0 3.0 0.01 0.01 0.01 81 1010.7
20260509143825 55 152 1.0 3.0 0.01 0.01 0.01 81 1010.6
20260509143326 55 192 2.0 4.0 0.01 0.01 0.01 80 1010.6
20260509142812 55 192 2.0 4.0 0.00 0.00 0.00 79 1010.6
20260509142315 56 180 2.0 6.0 0.00 0.00 0.00 79 1010.6
20260509141831 55 194 3.0 6.0 0.00 0.00 0.00 78 1010.5
20260509141351 55 168 2.0 5.0 0.00 0.00 0.00 79 1010.5
20260509140849 55 136 2.0 3.0 0.00 0.00 0.00 78 1010.5
20260509140328 55 158 2.0 3.0 0.00 0.00 0.00 79 1010.4
20260509135829 55 188 2.0 3.0 0.00 0.00 0.00 79 1010.4
20260509135330 55 128 1.0 3.0 0.00 0.00 0.00 80 1010.5
20260509134831 55 128 2.0 6.0 0.00 0.00 0.00 80 1010.4
20260509134312 55 164 3.0 5.0 0.00 0.00 0.00 81 1010.3
20260509133815 55 165 4.0 8.0 0.00 0.00 0.00 81 1010.4
20260509133316 55 136 3.0 8.0 0.00 0.00 0.00 81 1010.4
20260509132815 55 114 3.0 7.0 0.00 0.00 0.00 81 1010.3
20260509132317 54 147 4.0 7.0 0.00 0.00 0.00 82 1010.4
20260509131838 54 165 3.0 5.0 0.00 0.00 0.00 81 1010.5
20260509131320 54 177 3.0 7.0 0.00 0.00 0.00 82 1010.3
20260509130822 54 150 3.0 7.0 0.00 0.00 0.00 82 1010.1
20260509130322 54 142 4.0 7.0 0.00 0.00 0.00 81 1009.9
20260509125823 54 68 2.0 4.0 0.00 0.00 0.00 81 1009.7
20260509125323 54 53 2.0 5.0 0.00 0.00 0.00 82 1009.7
20260509124822 54 24 2.0 7.0 0.00 0.00 0.00 81 1009.8
20260509124323 54 73 5.0 8.0 0.00 0.00 0.00 80 1009.7
20260509123845 54 55 3.0 4.0 0.00 0.00 0.00 80 1009.9
20260509123324 54 191 1.0 3.0 0.00 0.00 0.00 80 1010.2
20260509122826 54 191 0.0 1.0 0.00 0.00 0.00 79 1010.4
20260509122327 54 191 0.0 1.0 0.00 0.00 0.00 79 1010.4
20260509121827 54 191 0.0 2.0 0.00 0.00 0.00 79 1010.4
20260509121349 54 191 1.0 2.0 0.00 0.00 0.00 79 1010.4
20260509120830 54 191 0.0 2.0 0.00 0.00 0.00 79 1010.3
20260509120351 54 191 1.0 2.0 0.00 0.00 0.00 79 1010.3
20260509115831 54 101 1.0 2.0 0.00 0.00 0.00 79 1010.2
20260509115313 54 101 1.0 2.0 0.00 0.00 0.00 79 1010.0
20260509114815 54 101 0.0 2.0 0.00 0.00 0.00 78 1010.0
20260509114316 54 111 1.0 2.0 0.00 0.00 0.00 78 1010.0
20260509113817 53 111 0.0 6.0 0.00 0.00 0.00 78 1010.1
20260509113318 53 111 1.0 6.0 0.00 0.00 0.00 78 1010.0
20260509112341 53 96 2.0 3.0 0.00 0.00 0.00 78 1010.0
20260509111820 53 118 1.0 7.0 0.00 0.00 0.00 79 1009.9
20260509111319 52 118 4.0 7.0 0.00 0.00 0.00 80 1009.8
20260509110819 52 126 2.0 4.0 0.00 0.00 0.00 80 1009.8
20260509110319 52 108 1.0 6.0 0.00 0.00 0.00 80 1010.0
20260509105822 52 90 2.0 6.0 0.00 0.00 0.00 80 1009.7
20260509105322 52 86 2.0 4.0 0.00 0.00 0.00 80 1009.6
20260509104822 52 71 3.0 4.0 0.00 0.00 0.00 80 1009.5
20260509104322 52 92 2.0 3.0 0.00 0.00 0.00 79 1009.7
20260509103823 52 80 1.0 4.0 0.00 0.00 0.00 79 1009.6
20260509103324 52 81 3.0 4.0 0.00 0.00 0.00 79 1009.6
20260509102823 52 17 1.0 3.0 0.00 0.00 0.00 79 1009.7
20260509102323 52 355 2.0 3.0 0.00 0.00 0.00 79 1009.6
20260509101822 52 53 1.0 3.0 0.00 0.00 0.00 79 1009.6
20260509101320 52 55 0.0 2.0 0.00 0.00 0.00 78 1009.6
20260509100822 52 36 1.0 3.0 0.00 0.00 0.00 78 1009.6
20260509100322 52 36 1.0 3.0 0.00 0.00 0.00 78 1009.7
20260509095823 52 86 2.0 2.0 0.00 0.00 0.00 78 1009.5
20260509095323 52 86 1.0 2.0 0.00 0.00 0.00 77 1009.5
20260509094821 52 86 1.0 3.0 0.00 0.00 0.00 77 1009.5
20260509094320 52 86 1.0 6.0 0.00 0.00 0.00 77 1009.5
20260509093821 52 77 2.0 4.0 0.00 0.00 0.00 77 1009.5
20260509093322 52 51 2.0 2.0 0.00 0.00 0.00 77 1009.7
20260509092844 53 67 1.0 2.0 0.00 0.00 0.00 76 1009.7
20260509092325 53 67 0.0 3.0 0.00 0.00 0.00 75 1009.8
20260509091826 53 67 0.0 3.0 0.00 0.00 0.00 75 1009.7
20260509091328 53 67 1.0 3.0 0.00 0.00 0.00 75 1009.6
20260509090829 53 67 2.0 3.0 0.00 0.00 0.00 74 1009.6
20260509090329 53 67 2.0 4.0 0.00 0.00 0.00 74 1009.6
20260509085830 53 91 2.0 6.0 0.00 0.00 0.00 74 1009.6
20260509085331 53 62 2.0 6.0 0.00 0.00 0.00 73 1009.6
20260509084814 54 59 2.0 4.0 0.00 0.00 0.00 73 1009.7
20260509084335 54 31 3.0 7.0 0.00 0.00 0.00 72 1009.8
20260509083815 54 74 3.0 8.0 0.00 0.00 0.00 72 1009.8
20260509083316 54 87 3.0 8.0 0.00 0.00 0.00 72 1009.8
20260509082817 54 75 4.0 8.0 0.00 0.00 0.00 72 1009.9
20260509082318 54 102 4.0 9.0 0.00 0.00 0.00 72 1009.8
20260509081820 54 98 5.0 9.0 0.00 0.00 0.00 73 1009.7
20260509081320 54 104 4.0 9.0 0.00 0.00 0.00 73 1009.8
20260509080822 53 96 5.0 9.0 0.00 0.00 0.00 75 1009.8
20260509080324 52 114 3.0 7.0 0.00 0.00 0.00 77 1009.9
20260509075825 51 92 3.0 4.0 0.00 0.00 0.00 78 1010.0
20260509075347 51 80 1.0 2.0 0.00 0.00 0.00 78 1009.9
20260509074827 51 35 1.0 2.0 0.00 0.00 0.00 78 1010.0
20260509074328 51 66 1.0 2.0 0.00 0.00 0.00 77 1010.0
20260509073827 51 66 1.0 2.0 0.00 0.00 0.00 77 1010.0
20260509073328 51 66 0.0 1.0 0.00 0.00 0.00 77 1010.1
20260509072828 51 66 0.0 2.0 0.00 0.00 0.00 77 1010.0
20260509072326 51 66 1.0 2.0 0.00 0.00 0.00 77 1010.1
20260509071828 51 15 0.0 3.0 0.00 0.00 0.00 77 1010.1
20260509071345 52 15 2.0 4.0 0.00 0.00 0.00 76 1010.2
20260509070823 53 17 2.0 4.0 0.00 0.00 0.00 73 1010.3
20260509070326 53 29 2.0 3.0 0.00 0.00 0.00 73 1010.3
20260509065827 53 78 2.0 3.0 0.00 0.00 0.00 72 1010.3
20260509065327 53 58 1.0 3.0 0.00 0.00 0.00 72 1010.3
20260509064827 53 57 2.0 3.0 0.00 0.00 0.00 71 1010.3
20260509064328 53 69 2.0 3.0 0.00 0.00 0.00 72 1010.4
20260509063844 53 69 2.0 3.0 0.00 0.00 0.00 72 1010.4
20260509063324 53 55 1.0 4.0 0.00 0.00 0.00 72 1010.5
20260509062826 53 27 2.0 4.0 0.00 0.00 0.00 72 1010.5
20260509062312 53 61 2.0 4.0 0.00 0.00 0.00 71 1010.5
20260509061812 54 59 1.0 4.0 0.00 0.00 0.00 71 1010.6
20260509061312 54 59 2.0 4.0 0.00 0.00 0.00 71 1010.6
20260509060830 54 59 1.0 3.0 0.00 0.00 0.00 71 1010.4
20260509060350 54 36 1.0 4.0 0.00 0.00 0.00 71 1010.4
20260509055831 54 67 2.0 5.0 0.00 0.00 0.00 71 1010.6
20260509055329 54 53 2.0 5.0 0.00 0.00 0.00 71 1010.6
20260509054829 54 48 1.0 4.0 0.00 0.00 0.00 71 1010.6
20260509054331 54 34 2.0 5.0 0.00 0.00 0.00 71 1010.5
20260509053812 54 20 3.0 5.0 0.00 0.00 0.00 71 1010.6
20260509053333 54 62 3.0 4.0 0.00 0.00 0.00 71 1010.6
20260509052812 54 50 1.0 4.0 0.00 0.00 0.00 71 1010.7
20260509052313 54 49 2.0 4.0 0.00 0.00 0.00 71 1010.7
20260509051814 54 46 2.0 6.0 0.00 0.00 0.00 71 1010.8
20260509051313 54 53 3.0 6.0 0.00 0.00 0.00 71 1010.8
20260509050834 54 81 3.0 4.0 0.00 0.00 0.00 71 1010.8
20260509050314 54 60 2.0 4.0 0.00 0.00 0.00 71 1010.9
20260509045813 54 51 1.0 4.0 0.00 0.00 0.00 71 1011.0
20260509045313 55 54 2.0 4.0 0.00 0.00 0.00 71 1011.0
20260509044815 55 59 3.0 4.0 0.00 0.00 0.00 70 1011.0
20260509044316 55 87 2.0 3.0 0.00 0.00 0.00 70 1011.1
20260509043815 55 65 1.0 4.0 0.00 0.00 0.00 70 1010.9
20260509043316 55 87 2.0 4.0 0.00 0.00 0.00 71 1010.9
20260509042817 54 107 3.0 4.0 0.00 0.00 0.00 72 1010.9
20260509042319 54 78 2.0 4.0 0.00 0.00 0.00 71 1010.9
20260509041819 54 57 1.0 4.0 0.00 0.00 0.00 72 1010.9
20260509041339 54 30 2.0 5.0 0.00 0.00 0.00 72 1010.8
20260509040839 54 55 3.0 6.0 0.00 0.00 0.00 73 1010.7
20260509040336 55 49 2.0 6.0 0.00 0.00 0.00 73 1010.8
20260509035829 55 41 3.0 6.0 0.00 0.00 0.00 74 1010.9
20260509035351 55 25 2.0 3.0 0.00 0.00 0.00 72 1011.1
20260509034832 56 52 1.0 3.0 0.00 0.00 0.00 71 1011.1
20260509034352 56 61 2.0 3.0 0.00 0.00 0.00 70 1011.2
20260509033832 56 103 2.0 3.0 0.00 0.00 0.00 70 1011.2
20260509033332 55 70 2.0 2.0 0.00 0.00 0.00 71 1011.3
20260509032833 55 51 0.0 2.0 0.00 0.00 0.00 71 1011.3
20260509032314 55 51 1.0 2.0 0.00 0.00 0.00 71 1011.1
20260509031815 55 67 1.0 2.0 0.00 0.00 0.00 70 1011.3
20260509031315 55 32 0.0 2.0 0.00 0.00 0.00 70 1011.3
20260509030815 55 26 1.0 2.0 0.00 0.00 0.00 70 1011.4
20260509030315 55 5 0.0 2.0 0.00 0.00 0.00 71 1011.5
20260509025836 55 192 0.0 0.0 0.00 0.00 0.00 70 1011.4
20260509025317 55 192 0.0 0.0 0.00 0.00 0.00 69 1011.4
20260509024838 55 192 0.0 1.0 0.00 0.00 0.00 70 1011.3
20260509024319 55 192 0.0 3.0 0.00 0.00 0.00 71 1011.3
20260509023819 55 192 2.0 3.0 0.00 0.00 0.00 69 1011.3
20260509023320 55 31 0.0 2.0 0.00 0.00 0.00 67 1010.9
20260509022823 55 31 0.0 2.0 0.00 0.00 0.00 67 1010.9
20260509022324 55 31 0.0 0.0 0.00 0.00 0.00 65 1010.8
20260509021824 56 31 0.0 2.0 0.00 0.00 0.00 65 1010.9
20260509021325 56 31 0.0 2.0 0.00 0.00 0.00 66 1010.8
20260509020828 56 31 0.0 2.0 0.00 0.00 0.00 65 1010.7
20260509020329 56 31 0.0 2.0 0.00 0.00 0.00 66 1010.7
20260509015830 56 31 1.0 2.0 0.00 0.00 0.00 66 1010.8
20260509015331 56 31 1.0 2.0 0.00 0.00 0.00 66 1010.9
20260509014832 56 31 1.0 2.0 0.00 0.00 0.00 65 1011.0
20260509014312 56 31 1.0 2.0 0.00 0.00 0.00 65 1010.9
20260509013812 56 31 2.0 2.0 0.00 0.00 0.00 65 1010.9
20260509013314 56 31 0.0 2.0 0.00 0.00 0.00 65 1010.9
20260509012832 56 31 0.0 1.0 0.00 0.00 0.00 64 1010.9
20260509012312 56 31 0.0 2.0 0.00 0.00 0.00 64 1010.9
20260509011813 56 31 0.0 2.0 0.00 0.00 0.00 64 1010.8
20260509011314 57 31 1.0 2.0 0.00 0.00 0.00 64 1010.8
20260509010815 57 31 1.0 2.0 0.00 0.00 0.00 63 1010.7
20260509010340 57 31 0.0 2.0 0.00 0.00 0.00 62 1010.7
20260509005840 57 31 0.0 2.0 0.00 0.00 0.00 63 1010.6
20260509005337 57 31 1.0 2.0 0.00 0.00 0.00 63 1010.7
20260509004837 57 31 1.0 2.0 0.00 0.00 0.00 63 1010.7
20260509004318 57 31 1.0 2.0 0.00 0.00 0.00 63 1010.7
20260509003821 57 31 1.0 2.0 0.00 0.00 0.00 62 1010.6
20260509003342 57 31 1.0 3.0 0.00 0.00 0.00 62 1010.6
20260509002822 57 31 1.0 3.0 0.00 0.00 0.00 62 1010.6
20260509002322 58 26 0.0 3.0 0.00 0.00 0.00 60 1010.5
20260509001824 58 33 1.0 3.0 0.00 0.00 0.00 60 1010.5
20260509001346 58 33 1.0 2.0 0.00 0.00 0.00 59 1010.5
20260509000825 58 355 0.0 2.0 0.00 0.00 0.00 58 1010.5
20260509000327 59 355 0.0 3.0 0.00 0.00 0.00 58 1010.4
20260508235830 59 350 1.0 3.0 0.00 0.00 0.00 56 1010.4
20260508235330 59 342 0.0 3.0 0.00 0.00 0.00 55 1010.4
20260508234812 60 5 1.0 3.0 0.00 0.00 0.00 54 1010.2
20260508234315 60 355 1.0 4.0 0.00 0.00 0.00 54 1010.1
20260508233817 60 355 1.0 8.0 0.00 0.00 0.00 53 1010.1
20260508233339 61 296 4.0 8.0 0.00 0.00 0.00 52 1010.1
20260508232818 61 318 1.0 6.0 0.00 0.00 0.00 52 1009.7
20260508232317 61 345 2.0 10.0 0.00 0.00 0.00 52 1009.8
20260508231822 62 346 6.0 10.0 0.00 0.00 0.00 50 1009.8
20260508231327 62 333 1.0 5.0 0.00 0.00 0.00 47 1009.7
20260508230825 62 304 1.0 3.0 0.00 0.00 0.00 47 1009.8
20260508230320 62 327 0.0 3.0 0.00 0.00 0.00 47 1009.8
20260508225818 62 302 1.0 4.0 0.00 0.00 0.00 47 1009.7
20260508225318 62 337 1.0 4.0 0.00 0.00 0.00 46 1009.9
20260508224815 62 328 1.0 3.0 0.00 0.00 0.00 46 1009.8
20260508224333 62 332 0.0 6.0 0.00 0.00 0.00 46 1009.8
20260508223831 62 307 1.0 6.0 0.00 0.00 0.00 46 1009.8
20260508223352 62 313 1.0 7.0 0.00 0.00 0.00 46 1009.8
20260508222837 62 259 2.0 7.0 0.00 0.00 0.00 45 1009.7
20260508222323 62 302 1.0 4.0 0.00 0.00 0.00 45 1009.6
20260508221830 62 271 2.0 4.0 0.00 0.00 0.00 44 1009.6
20260508221327 62 298 1.0 4.0 0.00 0.00 0.00 45 1009.7
20260508220828 62 269 1.0 4.0 0.00 0.00 0.00 44 1009.7
20260508220329 63 317 1.0 9.0 0.00 0.00 0.00 44 1009.7
20260508215830 63 315 4.0 9.0 0.00 0.00 0.00 43 1009.8
20260508215332 63 346 3.0 8.0 0.00 0.00 0.00 42 1009.8
20260508214856 63 289 2.0 8.0 0.00 0.00 0.00 42 1009.8
20260508214322 63 288 4.0 8.0 0.00 0.00 0.00 40 1009.8
20260508213817 63 296 2.0 8.0 0.00 0.00 0.00 42 1009.7
20260508213339 64 282 2.0 8.0 0.00 0.00 0.00 41 1009.6
20260508212854 64 287 3.0 8.0 0.00 0.00 0.00 41 1009.6